User: anonymous   Login
Location: Caltech
(34.1382°N, 118.1253°W)
Time: 13:43:12
(UTC-07:00)
Language:

Gurwin Techsat 1B - Orbit

View from above orbital plane
View from above orbital plane
View from above satellite
View from above satellite

Ground track
Ground track

The orbit data is extracted from the following two-line orbital elements,

1 25397U 98043D   17294.91507858 +.00000002 +00000-0 +19729-4 0  9990
2 25397 098.6211 234.6403 0001649 035.9425 324.1864 14.23631484001606
Epoch (UTC): 21 October 2017 21:57:42
Eccentricity: 0.0001649
inclination: 98.6211°
perigee height: 812 km
apogee height: 814 km
right ascension of ascending node: 234.6403°
argument of perigee: 35.9425°
revolutions per day: 14.23631484
mean anomaly at epoch: 324.1864°
orbit number at epoch: 160

The dashed part of the orbit path shows where the satellite is in the earth's shadow,  

DLR